Starlink 33821

operational
NORAD ID: 63859 Int'l Des: 2025-093 Owner: SPXS Country: US Constellation: starlink
LEOCIRCULAR

Über Starlink 33821

Beschreibung wird geladen...

Live-Position

3D-Globus wird geladen...

Nächste Überflüge

Höhenverlauf

Altitude vs Time

uPlot chart will show altitude changes over time

Zweizeiliger Elementsatz

1 63859U 25093Z 26062.17406920 .00025142 00000-0 92060-3 0 9999
2 63859 42.9994 114.8312 0003150 295.8474 64.2052 15.27557889 46958
Epoch: 3. März 2026 • Age: 17 hours

Aktueller Status

Höhe 487.8 km
Geschwindigkeit 7.63 km/s
Subsatellitenpunkt 42.67°N, 133.44°E
Startdatum 7. Mai 2025
Alter 0.8 years
Typ internet

Technische Details

Klassifizierung Payload
Masse 575.00 kg
Trockenmasse 530.00 kg
Gesamtmasse 575.00 kg
Länge 0.30 m
Durchmesser 4.10 m
Spannweite 29.00 m
Form Box + pan
Hersteller SPXS
Bus-Typ Starlink V2MO
Phasenstatus In Orbit
Besitzer/Staat SPXS/US

Große Konstellationen

Loading constellations...